Location: Unspecified
(0.0000°N, 0.0000°E)
Time: 19:02:13
(UTC+00:00)

XW-2F - Visible Passes

Search period start: 09 December 2019 00:00
Search period end: 19 December 2019 00:00
Orbit: 504 x 522 km, 97.5° (Epoch: 09 December)

Date Brightness Start Highest point End Pass type
(mag) Time Alt. Az. Time Alt. Az. Time Alt. Az.
12 Dec ? 05:14:08 10° NE 05:17:23 28° E 05:20:38 10° SSE visible
12 Dec ? 18:42:33 10° WSW 18:43:19 10° WSW 18:44:05 10° W visible
13 Dec ? 04:59:27 10° ENE 05:01:49 16° ESE 05:04:11 10° SE visible
13 Dec ? 18:25:06 10° SSW 18:27:45 19° WSW 18:30:24 10° NW visible
18 Dec ? 05:14:23 10° NE 05:17:38 28° ESE 05:20:52 10° SSE visible
18 Dec ? 18:42:48 10° WSW 18:43:34 10° WSW 18:44:20 10° W visible
